RH
72 73 73 73 73 73 73 72 72 72 72 71 70 69 70 71 71 72 73 73 72 74 74 73 72 71 71 71 71 70 70 72 73 75 77 79 79 79 77 78 79 78 76 75 74 75 75 74 72 73 74 74 73 73 72 71 71 70 69 68 66 68 72 77 84 84 71 64 66 66 68 68 62 61 64 63 61 60 57 57 59 57 51 51 57
73 74 75 75 74 74 74 73 72 73 73 71 70 69 70 70 70 72 72 71 71 72 72 71 69 70 70 70 70 70 70 72 73 74 76 77 78 78 78 78 77 76 75 73 71 73 75 74 72 73 74 74 73 73 72 71 71 71 70 70 67 66 68 72 78 83 76 66 64 65 68 68 61 61 65 63 61 58 56 61 62 55 55 63 69
71 74 76 76 74 74 74 74 73 74 74 72 71 71 70 69 70 71 71 70 71 71 69 69 68 68 69 68 68 70 71 72 72 73 74 75 77 77 78 78 77 76 75 73 71 73 76 76 73 72 73 73 72 72 72 71 71 71 70 69 69 67 69 72 75 79 77 71 68 66 69 68 59 60 63 60 60 59 61 68 62 55 66 75 74
74 76 77 76 75 76 75 73 73 75 77 75 73 72 70 68 68 69 70 70 70 69 68 68 68 67 68 67 67 68 69 69 70 71 72 72 74 75 75 76 75 75 75 75 75 76 77 77 75 73 72 72 73 72 73 73 71 71 70 69 69 68 69 70 72 75 77 77 73 68 70 66 57 58 62 61 63 63 68 72 59 54 72 79 75
77 77 78 78 78 78 76 74 72 74 77 77 75 73 71 69 68 69 69 69 69 69 69 68 68 68 67 66 66 66 66 66 67 69 70 71 72 73 72 72 73 74 75 75 76 76 77 77 76 75 74 72 72 72 72 72 71 69 68 67 68 68 67 67 69 72 76 77 76 72 70 64 57 61 67 68 68 67 70 71 56 53 72 79 74
81 81 81 81 80 78 77 75 73 72 73 74 74 74 73 70 68 68 69 69 69 69 69 69 69 68 67 65 65 64 63 64 64 66 67 69 70 71 71 70 70 72 75 74 75 75 76 76 75 74 74 71 70 70 69 70 70 69 68 66 65 66 65 65 66 69 71 73 76 75 69 63 61 66 71 74 74 72 72 65 48 49 72 79 69
84 83 83 83 82 80 78 76 74 73 71 70 70 72 72 70 68 67 68 69 70 70 70 70 69 68 67 65 63 62 61 62 63 63 64 65 67 68 68 69 68 71 74 74 74 74 74 74 73 72 71 71 70 69 69 68 67 66 66 65 66 67 66 65 65 67 70 74 77 74 67 65 69 72 72 72 73 73 72 63 49 48 68 79 66
83 83 83 83 82 80 78 75 74 73 70 67 67 68 69 70 70 68 67 68 69 69 68 67 66 65 64 62 61 59 59 61 61 62 63 63 65 65 66 67 68 70 73 74 73 74 73 73 73 71 70 70 70 69 69 69 67 65 64 64 66 67 65 65 66 68 71 74 73 69 67 70 74 74 71 71 72 71 63 58 55 51 58 74 74
80 82 83 82 80 77 77 76 74 74 72 68 68 68 68 70 70 69 68 68 69 69 67 65 63 61 60 58 58 58 58 58 59 59 60 61 62 63 64 65 67 70 72 73 73 73 73 73 73 70 68 67 69 68 68 68 68 66 65 66 67 67 66 68 69 69 70 71 68 67 71 76 75 74 74 73 73 66 52 45 50 49 50 66 77
81 82 82 80 78 77 77 76 76 75 74 71 70 71 71 72 71 69 68 68 69 67 64 61 59 57 56 57 56 57 57 57 57 56 57 59 61 62 63 65 67 69 71 72 73 73 73 73 73 70 67 66 67 68 67 68 70 68 66 67 68 69 70 69 70 70 68 66 66 71 78 78 75 76 78 75 69 58 46 43 49 50 49 60 74
82 83 82 80 80 81 80 79 79 77 76 75 73 73 73 73 72 70 69 70 70 66 62 59 58 57 58 58 57 57 56 55 54 53 54 58 63 63 62 64 67 69 71 73 73 73 72 72 73 72 69 66 65 67 68 69 71 68 64 63 65 68 71 70 70 70 67 65 71 79 82 79 76 77 77 74 65 53 46 46 51 55 55 62 78
84 85 87 86 84 84 83 82 81 80 79 78 76 75 75 74 73 71 70 70 68 65 63 62 61 60 59 58 57 57 56 55 54 55 58 63 68 68 66 66 68 70 72 74 73 73 72 71 72 73 71 66 64 66 67 66 66 65 63 64 65 66 69 69 68 66 65 69 77 81 81 78 77 77 75 70 62 54 50 47 52 60 59 64 82
88 88 89 89 87 85 84 83 81 79 78 77 76 76 76 75 74 75 77 79 80 80 78 74 71 68 66 64 63 61 60 59 58 59 64 68 72 74 74 74 74 74 74 74 73 72 70 68 69 70 71 67 63 62 63 62 63 63 64 65 66 68 70 70 68 64 67 76 80 79 80 78 76 77 73 65 58 53 50 48 56 66 63 68 86
89 88 89 90 88 85 83 82 81 80 80 79 80 80 80 82 85 88 88 87 88 86 80 76 76 75 74 73 72 70 68 66 64 64 68 72 75 77 78 78 77 76 74 72 70 66 63 63 64 67 70 68 64 62 63 63 63 64 65 67 72 76 76 73 70 68 73 79 79 78 79 77 77 77 67 57 55 52 51 55 64 70 70 78 91
94 93 92 92 91 88 86 86 84 84 84 83 85 88 92 95 98 97 91 86 84 79 75 78 83 84 83 82 80 79 77 74 72 70 71 74 78 79 79 78 76 74 72 69 69 67 65 63 65 69 72 70 65 63 64 65 66 67 67 71 79 86 84 80 78 77 79 81 80 81 81 78 80 76 60 52 54 55 59 66 70 72 75 84 92
95 95 95 96 95 92 91 92 92 91 91 89 91 95 99 99 97 94 91 93 94 90 87 90 91 87 83 80 78 81 84 81 78 76 75 75 76 77 78 78 77 74 72 70 71 73 72 72 74 77 78 75 72 71 69 68 69 71 71 75 85 90 87 83 82 82 82 82 83 83 82 80 79 69 56 55 60 62 66 71 71 73 75 78 85
95 96 97 97 96 95 95 97 96 96 96 96 97 99 99 95 92 89 91 97 97 93 91 91 88 85 84 83 82 85 88 88 86 84 82 81 81 81 81 81 81 79 77 75 75 75 75 77 83 83 81 79 77 77 76 73 74 75 76 82 90 91 87 84 81 81 80 80 80 79 75 73 68 58 55 62 66 65 68 71 71 71 70 70 78
97 97 97 97 97 97 97 97 94 93 95 97 99 99 96 92 90 91 93 97 94 90 91 92 91 92 94 95 95 95 96 96 95 94 93 92 92 91 89 87 85 83 80 78 77 76 76 81 90 88 81 77 76 76 80 80 80 80 81 87 93 92 89 84 73 67 66 66 64 63 60 58 54 53 60 67 67 66 69 71 70 69 66 64 68
99 98 98 98 97 98 98 96 94 93 92 93 95 96 93 90 90 89 89 91 90 88 91 95 98 99 100 100 100 99 99 99 98 98 97 95 94 94 92 91 89 87 86 84 83 83 81 85 95 94 84 80 78 79 82 83 83 84 86 89 91 88 87 83 71 63 61 59 57 56 54 52 52 59 67 68 66 68 70 71 70 66 61 58 57
98 96 96 94 92 92 91 91 93 94 93 92 92 93 92 89 88 88 89 92 95 95 96 99 100 99 98 98 98 97 96 94 93 92 90 88 88 88 87 88 88 87 88 90 93 95 92 91 96 97 92 88 87 88 91 91 89 89 89 90 88 81 77 75 72 66 61 58 58 56 51 52 59 68 71 68 68 72 71 70 68 60 55 56 58
91 89 89 88 87 88 88 89 91 91 88 86 85 86 88 87 86 90 95 96 98 98 98 97 96 95 95 95 94 92 90 87 84 81 80 81 83 85 85 86 87 88 91 93 96 99 99 98 98 98 98 98 97 95 93 92 91 90 89 88 83 72 64 61 60 59 58 60 59 52 49 57 69 73 70 69 72 74 70 66 64 57 52 56 60
83 84 84 85 87 90 91 90 88 85 82 80 80 84 90 91 87 88 92 97 99 99 97 94 94 95 96 95 92 88 82 77 72 67 65 67 68 69 67 62 61 71 82 90 94 96 95 96 98 99 97 97 96 91 83 82 87 90 87 80 69 58 55 56 56 56 59 58 49 45 56 70 73 71 70 73 75 71 65 62 60 56 54 55 58
74 78 79 80 82 83 83 81 79 78 79 79 80 85 91 93 88 81 81 89 95 97 95 94 94 95 95 91 87 83 77 74 73 70 66 60 53 48 44 33 27 34 45 57 73 86 91 90 91 93 92 89 88 87 82 80 84 86 83 75 66 60 57 54 50 50 55 55 46 48 68 78 73 69 73 77 74 66 62 60 57 55 57 57 57
65 67 68 70 73 72 73 70 67 69 72 73 76 82 87 90 87 80 76 80 86 88 90 89 89 89 87 84 82 80 77 76 76 70 61 52 40 33 31 26 21 21 22 26 38 57 74 86 89 89 89 88 87 88 87 87 88 87 83 73 64 60 52 42 40 46 55 61 62 65 74 77 71 69 71 73 72 65 59 57 57 57 59 59 59
58 58 58 60 60 57 56 55 53 55 59 60 64 72 79 85 85 82 79 78 77 80 82 84 84 84 82 81 82 81 77 77 75 61 45 39 34 27 23 19 17 19 19 18 19 25 41 64 77 77 75 76 76 75 74 73 72 72 70 59 44 33 26 26 38 52 61 70 76 76 76 77 73 69 68 71 73 68 60 59 61 63 62 61 62
54 55 55 55 52 50 49 48 47 47 47 48 52 58 67 77 84 89 88 82 77 77 79 80 83 85 85 83 82 80 78 79 73 55 41 41 42 35 24 16 13 14 15 16 18 15 16 33 54 62 61 62 63 62 57 53 49 49 53 51 39 29 27 34 45 53 61 75 83 80 77 79 77 71 70 73 73 66 59 59 63 66 66 63 62
49 49 49 50 51 53 55 54 51 50 51 51 50 50 53 62 72 84 91 89 86 88 90 86 82 82 84 84 83 82 80 74 64 51 45 45 40 31 23 16 12 12 12 12 15 15 18 35 57 70 71 69 70 72 70 67 65 64 65 65 61 56 57 60 58 54 58 73 80 75 72 77 78 75 73 74 71 64 58 57 60 64 66 64 62
47 46 47 47 49 53 55 54 52 52 54 56 55 52 49 48 51 62 75 85 91 96 101 98 90 84 85 87 87 83 73 62 54 49 44 38 29 22 19 16 14 15 15 12 14 25 41 58 70 76 75 73 74 80 83 84 83 83 83 85 86 85 82 80 77 72 72 78 78 71 69 72 73 71 69 67 66 64 61 59 60 63 67 65 64
51 48 46 46 47 48 48 49 50 51 53 54 53 49 45 42 40 41 49 63 78 89 96 100 99 96 93 90 84 75 65 56 48 42 36 30 26 21 18 18 20 24 24 21 25 42 61 71 73 75 76 76 77 80 84 85 85 86 86 86 85 84 82 79 78 77 75 74 71 69 68 68 66 65 64 64 65 65 64 63 63 64 66 65 66
53 50 47 47 48 47 47 49 52 54 54 51 47 45 47 50 49 42 34 35 45 61 77 89 92 88 80 73 65 57 51 45 37 32 31 30 28 27 25 26 29 34 39 43 49 59 69 74 77 79 79 78 78 78 77 78 79 79 79 77 75 75 74 73 73 73 71 70 69 68 68 67 67 67 67 67 68 68 66 66 65 65 66 67 71
53 51 50 51 51 48 49 50 51 54 57 55 52 53 57 61 60 55 44 30 23 31 47 58 60 56 49 46 44 42 42 42 40 39 40 40 43 46 43 39 41 49 58 67 71 73 75 78 82 82 79 79 82 80 76 75 76 76 75 74 73 73 72 72 72 71 69 69 69 69 68 68 69 70 69 69 69 69 68 68 67 67 68 69 75
56 53 51 53 53 52 52 52 52 54 57 57 56 56 58 62 65 64 59 47 34 31 34 38 41 43 42 42 45 49 55 59 59 58 58 60 65 68 59 52 56 65 70 74 77 78 78 80 82 81 79 80 83 81 77 75 76 75 73 73 73 73 72 73 72 70 69 69 69 70 71 71 71 71 71 70 70 69 70 69 69 70 69 69 73
55 54 51 52 56 58 58 56 57 58 59 60 60 60 60 65 69 69 66 61 54 48 47 48 50 50 49 52 59 64 67 68 67 67 70 72 73 71 65 63 69 74 74 74 77 80 81 81 83 82 82 82 81 78 75 74 74 73 71 72 74 74 73 72 71 69 70 71 71 71 72 72 71 72 71 71 70 70 69 69 68 68 68 69 72
51 53 54 54 57 61 61 59 58 60 60 61 62 63 62 66 70 71 69 68 64 59 57 58 56 52 54 61 66 67 67 66 65 68 72 75 74 72 70 71 74 76 75 74 75 77 78 79 80 80 78 78 76 73 72 73 72 72 72 72 73 73 72 71 70 70 71 71 71 72 73 72 72 72 71 70 70 69 68 67 68 68 70 76 80
52 52 53 53 55 59 61 61 61 61 61 61 63 65 65 65 67 68 66 67 68 66 63 61 58 56 59 63 61 59 59 59 59 63 69 73 75 73 71 71 72 73 73 72 71 72 72 73 74 74 72 72 72 71 71 72 72 72 72 72 72 71 71 70 70 71 71 71 71 72 71 70 70 70 69 69 68 67 67 66 66 71 77 81 84
57 56 55 52 51 52 54 56 57 59 62 64 65 66 67 66 66 65 62 61 64 67 67 65 61 59 60 61 58 57 57 55 55 58 62 68 72 71 70 70 70 70 71 71 70 70 70 70 70 70 70 70 70 70 70 71 71 71 71 71 71 71 70 71 71 71 71 70 71 71 70 70 70 68 68 68 66 66 69 68 66 72 82 86 87
62 60 59 57 55 54 52 51 51 53 58 63 65 65 63 60 60 64 64 59 59 64 69 69 65 61 61 61 59 58 57 55 56 57 59 63 68 68 68 70 70 71 71 71 70 70 70 70 70 70 70 70 70 70 70 70 70 71 71 71 71 72 72 72 72 72 71 71 71 71 70 70 70 69 69 69 67 66 70 72 72 75 81 86 88
67 65 64 63 61 60 59 57 54 54 55 59 62 62 56 47 46 55 62 60 57 59 65 69 69 66 62 60 60 60 57 55 56 58 59 62 66 68 69 71 71 71 71 71 71 71 70 70 71 70 70 70 70 70 71 71 71 72 71 71 72 72 72 73 72 72 72 72 71 72 72 70 71 69 66 69 71 66 64 71 80 83 83 85 88
70 72 73 72 70 68 66 64 62 60 59 60 61 60 56 50 46 50 58 60 57 55 58 66 71 71 66 61 61 61 58 56 57 58 59 63 67 70 71 71 70 70 71 71 71 71 70 70 71 70 70 71 70 70 71 70 71 72 71 71 72 72 72 73 73 72 74 73 72 73 72 70 70 66 59 62 73 71 65 72 86 90 88 88 89
62 65 69 72 74 75 74 72 69 66 64 64 64 63 60 58 57 56 58 60 59 56 56 60 67 70 68 64 62 61 59 57 57 58 61 66 71 71 71 70 70 71 71 71 71 71 71 71 71 71 71 72 71 71 72 72 72 72 72 72 73 73 73 75 74 74 75 74 72 72 70 66 66 63 57 62 75 77 74 80 89 90 89 90 89
54 55 58 63 69 73 75 76 76 74 73 71 69 67 64 62 63 64 64 62 60 59 56 56 58 65 69 67 63 61 59 56 55 59 64 69 71 71 70 71 71 71 71 71 72 72 72 72 72 72 72 73 73 73 74 73 74 75 75 74 75 75 76 76 75 75 74 72 71 70 67 65 65 64 63 69 76 76 76 83 88 88 89 91 90
61 58 59 60 63 66 67 69 71 73 76 76 73 71 68 64 64 67 68 65 63 61 59 55 56 63 71 70 65 61 58 55 55 60 66 70 71 71 71 71 71 71 72 72 72 72 72 72 72 71 71 72 73 74 75 76 76 76 76 77 77 77 77 76 75 73 72 71 70 68 66 66 69 71 74 83 88 86 87 91 92 91 91 92 91
64 62 60 58 57 57 57 59 62 65 70 75 77 75 71 68 66 66 65 63 62 62 61 58 58 65 72 72 65 59 56 55 58 63 67 70 70 70 70 71 71 71 71 71 71 71 69 68 68 68 69 70 73 74 76 77 78 79 79 79 78 77 76 74 73 73 72 70 69 68 68 72 77 78 82 90 96 96 96 97 96 94 93 92 92
61 65 66 65 64 62 60 60 62 65 69 76 81 81 77 73 69 65 61 59 60 63 63 60 60 67 73 71 64 58 56 58 62 65 68 69 70 70 70 71 70 70 69 69 68 67 65 64 65 66 67 70 73 75 77 79 80 80 80 78 76 75 74 74 73 73 72 70 70 71 75 80 82 82 85 92 97 98 99 99 99 98 97 96 95
59 66 72 73 74 73 72 73 76 78 81 85 88 88 86 82 78 73 69 66 66 68 68 64 63 69 72 69 64 61 61 62 64 66 67 68 69 69 70 70 69 68 67 66 65 64 64 65 65 65 67 70 73 75 78 80 80 79 77 75 74 74 74 74 74 73 71 72 75 80 83 83 83 85 92 97 99 99 100 100 100 99 100 99 96
63 69 76 84 89 90 90 91 92 92 93 93 93 92 92 90 87 84 80 75 70 69 70 69 69 72 72 68 65 65 64 64 64 66 67 68 68 69 69 68 68 67 66 65 65 65 65 65 65 66 67 69 72 76 78 78 77 75 74 74 74 74 74 74 74 72 72 77 83 87 87 84 83 85 90 94 96 98 100 100 100 100 100 100 96
67 71 78 89 96 97 96 95 96 97 98 97 98 98 96 94 92 89 87 82 76 72 73 75 75 74 71 67 66 66 66 66 67 67 68 69 69 69 68 68 66 66 66 65 65 65 65 65 66 67 68 70 72 74 75 75 74 74 74 73 73 74 74 73 73 73 77 84 88 89 86 84 82 81 81 85 93 99 100 100 100 100 100 99 96
77 80 83 88 92 95 95 95 96 97 97 97 98 98 97 96 94 91 89 86 81 76 75 77 76 73 69 67 68 68 68 70 71 71 72 73 73 71 70 69 67 66 66 66 66 66 66 66 67 68 69 71 72 72 73 75 75 75 75 75 75 74 74 74 75 79 85 90 91 89 86 85 84 81 80 86 94 100 100 100 100 100 100 99 96
82 81 85 90 93 93 92 91 92 93 92 91 91 90 91 93 92 88 86 87 86 82 80 79 77 73 70 70 71 71 71 73 75 75 74 73 72 70 70 69 68 67 67 67 67 68 68 68 69 70 71 72 73 73 74 75 77 78 78 77 76 75 75 77 80 85 90 92 90 87 86 86 86 84 83 89 96 100 100 100 100 100 100 99 96
76 77 83 89 89 86 83 83 84 85 83 83 84 85 86 88 88 85 85 88 89 88 88 87 83 79 77 75 74 74 74 76 77 76 74 72 72 71 71 70 68 68 69 68 69 69 70 70 71 71 71 72 73 73 74 76 79 80 79 77 76 77 78 80 84 89 93 92 88 84 83 86 86 84 86 91 97 100 100 100 100 100 100 99 98
72 75 80 82 80 78 77 76 76 74 73 75 79 81 82 82 83 85 87 89 88 88 88 87 85 85 85 81 78 78 78 78 77 76 74 73 72 71 71 70 69 69 69 69 70 70 71 71 72 71 71 73 73 74 76 79 80 78 77 76 78 78 78 81 86 90 92 89 84 80 80 81 81 82 85 91 95 98 100 100 99 100 100 100 99
Wind_Speed
28 28 28 28 27 25 24 23 22 21 20 18 18 18 18 18 18 17 16 15 15 14 14 14 14 14 14 14 13 13 12 12 12 12 12 11 11 10 10 10 10 10 9 8 7 7 7 7 7 7 6 5 5 5 6 6 6 6 6 7 8 7 8 8 8 9 12 12 11 10 10 11 12 12 11 11 12 14 16 17 18 18 19 17 15
29 29 28 28 27 26 24 23 22 22 21 20 19 18 17 18 17 17 16 15 15 14 14 13 14 14 14 14 14 13 13 13 12 12 12 12 12 11 11 11 11 11 10 10 9 7 8 8 7 7 7 7 7 7 8 8 8 8 7 7 8 8 8 9 9 9 11 12 11 10 10 11 13 11 11 13 15 15 16 17 18 18 17 14 13
30 30 29 28 28 26 25 23 22 22 21 21 20 19 18 17 16 16 16 15 14 14 13 14 14 15 15 15 15 14 14 13 13 13 13 13 13 12 12 11 11 11 11 11 10 9 9 9 8 8 8 9 8 8 9 9 9 9 9 8 9 8 7 8 9 9 10 12 11 10 11 12 13 12 12 13 14 15 15 16 18 17 15 13 13
30 30 29 29 28 26 25 24 23 22 22 22 21 20 19 18 16 16 16 15 15 15 14 15 15 15 15 15 15 15 15 14 14 14 14 14 14 13 12 12 11 11 11 11 11 10 11 11 10 9 9 10 9 9 9 10 10 10 10 10 9 9 8 8 8 9 10 11 11 11 12 13 13 12 12 14 14 13 13 15 17 17 14 12 12
30 30 30 28 27 27 26 25 24 23 23 22 21 21 20 19 17 17 17 16 16 16 16 16 16 16 16 15 15 16 15 15 15 15 15 15 15 14 14 13 12 12 12 12 12 12 12 12 11 11 11 12 11 11 10 10 10 10 10 10 10 9 8 8 8 8 10 12 12 11 12 12 12 11 12 14 14 12 13 15 17 16 14 12 12
27 28 28 27 27 27 26 26 25 24 23 21 20 20 21 20 19 18 18 18 17 17 17 17 18 17 17 16 16 16 16 16 17 17 16 16 16 16 15 15 14 13 13 13 13 13 13 13 13 13 13 13 13 13 12 11 11 11 12 11 10 9 8 8 8 9 10 11 10 10 11 11 11 11 11 12 12 13 15 17 16 15 14 12 13
25 26 26 26 27 27 27 27 25 24 23 21 19 19 20 20 20 20 20 19 19 19 19 19 19 19 19 18 18 18 18 18 19 19 18 18 18 18 17 16 15 15 14 14 13 13 13 13 14 14 14 14 14 14 13 13 12 12 12 12 11 9 9 9 9 9 9 9 9 9 10 10 9 10 10 9 10 12 15 18 17 15 13 12 13
27 27 27 27 28 28 28 26 25 23 22 21 19 19 19 19 20 20 20 20 20 20 20 20 20 20 21 20 20 19 19 20 20 20 20 20 20 20 19 18 17 16 16 15 14 14 14 14 15 15 15 15 14 13 13 13 12 11 11 10 10 10 10 10 9 8 8 8 9 9 9 8 8 9 9 10 11 12 14 15 15 14 12 10 12
30 29 28 28 29 29 28 26 24 22 22 21 20 19 19 20 19 19 19 19 19 18 18 18 19 20 20 20 19 19 20 20 21 21 22 22 22 21 20 19 18 18 17 17 16 16 16 15 15 14 14 14 14 13 12 12 12 11 10 9 10 10 10 9 8 8 8 9 9 8 7 7 7 7 8 8 10 11 12 13 12 12 11 8 9
30 30 30 30 30 29 27 25 23 22 22 21 20 20 20 19 20 20 20 20 19 17 16 16 17 18 18 19 19 19 20 20 20 21 22 23 23 22 21 21 20 19 19 19 19 19 18 17 15 14 14 14 14 13 13 12 12 12 11 11 10 10 10 10 10 10 10 9 8 6 6 6 6 5 5 6 8 10 11 12 12 11 11 8 7
29 30 29 29 28 27 26 25 23 23 23 22 21 21 20 20 20 20 21 20 19 16 15 15 15 14 15 15 16 17 18 19 20 21 22 22 23 22 22 22 21 21 20 21 21 21 20 19 17 16 15 15 14 13 13 13 13 13 13 12 12 11 11 11 12 12 11 9 8 6 6 6 6 4 4 6 8 10 11 10 10 10 9 7 4
27 25 22 22 24 24 23 22 21 20 20 20 20 21 21 21 21 21 22 21 19 17 15 14 13 13 13 13 13 13 14 15 16 18 20 20 21 21 22 22 23 22 22 21 21 22 21 20 19 18 17 16 15 14 13 13 13 13 14 13 13 13 12 12 12 12 11 10 8 7 7 7 7 5 4 6 9 11 11 10 10 8 6 4 3
21 21 17 17 20 20 19 18 17 17 17 16 17 18 19 20 19 18 17 15 13 11 10 9 10 11 11 11 12 12 12 13 13 13 16 18 19 20 21 21 22 22 22 22 22 22 22 22 21 20 18 17 17 15 13 12 12 13 14 14 13 12 13 13 13 13 12 11 10 9 8 8 8 7 6 7 9 11 11 11 11 8 5 2 2
16 18 17 16 15 15 16 15 14 14 13 13 14 14 16 15 13 10 8 7 7 8 10 12 11 11 10 10 10 10 10 11 12 12 13 16 18 19 20 20 21 21 22 22 22 22 22 22 23 23 21 20 19 17 14 13 13 13 14 14 12 12 13 13 14 14 13 12 12 11 10 9 9 8 7 7 8 10 11 12 11 6 1 1 3
14 15 15 13 12 12 12 12 12 12 11 11 11 10 8 5 4 5 6 7 10 14 16 15 9 6 6 6 8 10 11 11 12 13 14 15 16 17 18 19 19 20 21 20 20 21 20 20 22 24 24 22 21 19 17 15 14 14 13 12 12 12 12 12 13 13 12 12 12 11 10 9 9 9 8 7 8 9 10 9 6 2 3 4 5
12 12 12 10 9 9 8 7 7 7 8 8 8 7 6 6 6 3 6 5 4 7 9 8 7 7 9 9 9 11 13 13 13 14 14 15 15 15 16 17 17 18 20 20 20 21 22 21 21 22 24 23 21 19 18 17 16 14 13 11 11 12 11 11 11 10 10 10 10 10 9 9 9 9 8 7 7 7 6 3 3 5 6 6 6
13 12 11 10 8 8 8 6 4 2 3 5 6 5 4 4 3 5 8 7 6 9 10 9 10 12 14 15 14 14 14 14 14 14 14 14 14 14 15 15 16 17 19 20 20 21 23 24 23 23 23 23 22 20 19 18 17 14 12 11 11 12 12 11 10 9 9 9 9 9 9 9 9 9 7 5 4 4 3 5 6 6 6 5 4
14 12 11 9 8 7 6 5 4 3 3 3 1 1 1 2 3 2 3 5 8 12 13 11 8 7 8 10 12 12 13 14 14 15 15 16 16 17 17 19 20 21 22 23 23 24 24 24 23 23 24 24 24 23 22 20 18 15 13 12 12 13 13 12 11 10 9 9 9 9 9 9 9 8 7 6 5 4 5 6 6 6 5 4 3
14 13 11 10 9 9 9 8 7 4 2 1 3 5 4 2 3 4 2 1 3 7 9 7 5 5 5 6 7 8 10 11 13 14 15 16 18 19 20 22 24 26 27 27 28 28 29 27 22 21 24 26 25 23 22 21 18 15 14 13 12 12 12 12 11 10 10 10 9 9 9 8 8 8 8 7 6 5 5 5 5 4 4 5 4
17 16 14 13 11 10 10 10 9 8 5 4 5 5 5 4 4 4 2 1 3 4 4 3 3 2 1 3 4 5 6 8 9 10 10 11 12 13 14 16 20 23 25 25 25 26 28 29 26 25 25 24 23 22 22 20 17 14 13 12 11 10 10 11 11 10 10 10 10 9 8 8 8 9 9 7 6 7 7 6 5 4 5 7 7
18 17 17 16 15 14 13 12 10 10 9 7 6 6 6 5 4 3 3 3 2 2 3 4 5 5 3 2 1 3 4 5 6 7 7 7 8 8 9 10 13 15 17 18 19 19 19 19 20 22 21 20 21 22 20 18 16 13 11 11 10 9 9 9 9 9 9 9 8 8 7 7 8 9 8 7 8 9 8 7 7 6 6 6 8
18 19 19 18 17 16 14 13 12 12 11 9 9 9 8 7 5 5 6 7 7 6 6 7 8 8 6 5 6 7 7 8 8 9 10 9 9 9 9 10 11 12 13 12 12 13 13 12 12 17 18 16 17 18 17 15 14 11 9 10 9 8 7 7 8 9 9 9 8 6 5 7 9 9 8 8 10 10 9 8 7 6 7 7 7
17 18 19 19 18 17 15 14 13 13 11 10 11 11 9 8 7 7 7 8 9 9 8 8 9 9 8 7 7 8 9 9 9 10 10 10 9 9 9 10 11 12 12 13 12 11 11 11 11 13 15 13 11 12 13 12 11 10 9 9 8 6 6 5 5 7 9 10 9 5 5 8 9 9 9 10 11 10 9 8 7 7 8 9 8
15 16 17 17 17 16 15 14 13 13 12 11 11 11 10 8 8 7 7 7 8 10 10 9 9 9 8 8 7 7 7 7 8 9 9 9 9 9 9 10 10 11 11 12 12 12 11 11 10 9 10 10 9 8 9 9 8 8 7 6 6 6 6 4 3 6 9 8 4 2 6 9 9 9 9 10 11 10 8 8 8 8 9 9 9
16 17 17 17 16 15 14 13 12 11 11 11 12 12 10 8 6 5 5 5 6 6 7 8 8 7 7 7 6 5 4 5 7 9 9 10 10 11 11 11 11 11 11 11 11 11 11 10 10 9 6 4 4 5 5 5 4 5 7 7 7 8 6 5 4 3 7 3 2 5 7 9 9 9 8 10 11 10 9 9 10 10 10 10 10
16 16 15 15 14 14 13 13 12 11 10 10 11 11 10 8 6 4 3 3 3 3 3 4 5 5 5 4 4 3 3 5 7 8 10 10 11 12 12 11 11 11 11 11 10 10 9 8 8 9 9 9 8 6 6 6 5 6 7 6 5 4 3 3 5 8 8 5 6 8 8 9 9 7 7 9 11 11 11 11 11 11 10 9 9
15 14 14 13 12 11 11 11 11 10 10 10 10 10 9 8 7 5 3 2 1 1 2 1 1 1 1 3 3 3 4 6 9 11 11 12 12 14 14 13 12 11 10 9 9 8 7 6 5 6 6 6 6 5 4 3 2 1 2 3 4 6 8 9 9 11 11 10 8 7 6 8 10 9 9 10 11 10 10 11 11 10 9 8 7
13 13 13 12 12 11 11 11 10 10 10 9 9 9 9 8 7 6 5 3 1 1 1 2 2 3 3 3 4 4 6 9 11 13 14 15 15 15 14 13 12 11 10 8 7 6 4 3 4 6 8 8 10 11 12 12 11 11 10 11 11 10 11 11 11 11 12 12 11 11 10 11 12 11 11 10 10 8 7 7 7 8 7 6 5
11 12 12 12 11 11 11 10 10 9 9 8 7 7 7 7 6 5 5 4 3 2 2 2 2 3 4 4 4 5 7 10 12 14 15 15 15 14 13 12 10 9 8 7 5 3 5 7 9 10 12 15 16 16 16 16 16 16 15 15 15 14 14 15 15 15 15 14 14 15 14 13 13 11 10 10 9 7 6 5 5 5 5 4 5
11 11 11 11 10 10 9 9 8 7 7 7 7 6 6 6 6 5 4 4 3 3 2 1 2 2 3 4 6 7 8 10 11 12 13 12 12 12 11 9 8 7 6 5 3 4 8 11 12 13 16 18 20 19 19 19 18 18 18 18 18 18 18 18 17 17 15 15 15 15 14 14 13 12 10 10 10 8 7 6 6 5 5 6 7
11 9 8 8 8 7 7 6 6 5 5 5 5 5 5 5 6 6 6 5 4 3 3 2 3 4 5 5 6 6 7 8 8 9 10 10 10 10 8 5 4 5 5 3 4 7 10 13 15 15 17 18 19 19 19 19 19 19 18 18 18 18 18 18 17 16 15 15 15 14 14 13 13 12 11 11 10 9 8 7 7 7 7 8 8
8 6 5 5 5 5 6 5 5 5 5 4 4 4 5 5 5 5 6 5 4 3 3 3 4 5 5 6 6 7 7 7 7 8 9 10 9 8 5 4 4 4 3 3 7 10 12 14 15 15 16 17 17 17 17 18 18 18 18 18 18 17 17 16 15 14 14 14 14 14 14 13 12 12 11 10 9 8 8 8 7 7 7 7 7
9 7 5 5 4 4 5 5 4 4 4 3 3 4 5 5 5 4 4 4 3 3 3 3 4 5 6 6 7 7 8 8 8 9 10 10 8 6 5 5 5 4 3 6 10 13 14 15 16 16 17 17 17 17 18 18 18 18 18 18 18 17 16 15 13 13 14 14 14 14 14 12 11 11 10 9 8 8 8 8 8 7 7 7 6
11 9 7 7 6 6 5 5 5 4 4 4 4 4 5 5 5 4 4 4 3 3 2 3 3 4 5 6 6 8 9 9 10 11 10 9 8 6 5 5 6 6 7 10 14 16 17 18 18 18 18 18 18 18 18 18 17 17 18 17 17 15 14 13 12 13 13 13 13 13 12 11 10 9 8 8 7 7 7 7 7 7 7 6 4
11 10 9 9 8 8 7 7 6 6 6 6 6 6 6 6 5 5 5 5 5 5 4 2 2 2 3 4 5 6 8 9 11 11 10 8 7 5 5 8 10 11 12 14 16 17 18 18 18 17 17 16 16 16 16 16 16 15 15 14 13 12 11 11 12 12 11 11 11 11 10 9 9 8 8 7 7 7 7 7 7 6 5 4 3
10 10 10 10 10 10 9 9 8 7 7 7 7 8 8 8 8 8 7 7 6 6 6 5 3 0 2 3 3 5 6 7 9 9 8 7 5 3 5 9 12 14 15 16 17 17 17 17 17 16 15 15 15 14 14 13 13 13 12 11 10 10 10 10 10 10 10 10 10 9 8 8 8 8 7 7 7 7 7 7 6 5 4 4 4
8 8 8 9 10 11 11 11 10 9 8 8 8 9 10 11 11 11 9 8 8 7 7 8 7 4 4 4 2 1 3 5 7 7 7 5 3 2 5 10 12 14 16 16 15 16 16 16 15 14 14 13 13 12 12 11 11 10 9 9 9 9 9 9 9 9 9 9 9 9 8 8 8 8 8 7 7 7 6 5 5 4 4 4 3
10 9 9 9 10 10 11 12 11 11 11 11 11 12 12 12 12 12 10 9 9 8 8 9 10 9 7 6 5 2 1 3 4 5 5 4 3 3 7 10 11 13 15 15 14 14 14 14 13 13 12 12 11 10 10 9 9 8 8 8 8 8 8 8 8 8 8 8 8 8 8 9 9 9 9 8 7 7 6 5 4 4 4 4 3
12 11 11 11 12 12 13 13 13 13 13 13 13 13 12 12 11 10 10 10 10 10 10 10 12 12 10 9 7 5 2 1 2 3 4 3 4 5 7 9 11 12 13 13 12 12 12 12 11 11 10 9 9 8 8 7 7 6 6 5 6 6 6 6 7 7 8 8 9 9 10 11 11 11 10 8 6 7 7 5 4 4 4 4 3
13 13 13 13 13 14 15 15 15 15 15 15 15 15 14 13 11 10 10 11 11 11 11 11 12 13 12 11 9 7 4 2 0 1 2 3 6 7 8 9 10 11 11 11 10 10 10 10 9 8 8 7 7 6 6 5 4 4 4 4 4 5 5 6 6 7 8 9 10 11 12 12 12 11 10 7 5 5 6 4 4 4 3 3 3
13 14 14 14 14 14 15 15 16 16 16 16 16 16 16 15 13 12 12 13 13 13 13 13 13 13 14 13 11 8 6 4 2 2 4 6 8 9 9 9 9 10 9 9 9 8 8 7 7 6 6 6 5 5 4 3 3 2 3 3 4 4 5 6 6 7 8 10 11 12 13 12 11 10 8 6 5 5 5 4 4 3 3 3 4
10 11 12 13 13 13 14 14 15 16 16 17 17 17 17 17 16 15 16 16 16 15 15 14 14 14 15 14 13 10 8 6 5 6 7 9 10 10 10 9 9 9 8 8 7 6 6 6 5 5 5 4 4 3 3 2 2 2 2 3 4 4 5 6 6 8 9 11 12 13 13 11 9 8 7 5 4 4 4 4 4 4 3 3 4
9 9 10 10 11 11 12 13 15 16 17 18 19 19 19 20 20 19 19 18 17 16 16 16 15 14 15 15 14 12 10 9 8 10 11 11 11 10 10 10 9 8 7 6 5 5 5 5 5 5 4 4 3 2 2 1 1 2 2 3 4 4 5 6 7 9 10 12 13 13 12 10 9 8 7 5 4 4 4 4 4 3 3 3 3
10 11 11 11 11 12 12 13 15 16 17 19 19 19 19 19 21 21 21 20 19 18 17 18 16 15 16 17 16 14 13 12 12 13 13 13 12 11 10 9 8 7 6 5 4 4 4 4 4 4 4 3 2 2 1 1 2 2 2 3 4 5 6 7 9 10 12 13 13 12 11 9 9 8 6 4 4 4 4 4 4 3 3 3 2
11 12 12 13 13 14 14 15 16 17 17 18 19 19 19 19 20 22 23 23 22 20 19 20 19 17 18 19 17 15 14 14 15 15 14 13 12 11 10 8 7 5 4 3 3 3 4 4 4 4 4 3 2 1 1 1 2 2 2 3 4 6 7 9 11 13 13 13 12 11 10 10 9 8 5 4 4 4 4 3 3 3 3 2 2
12 12 13 13 14 16 16 16 16 17 17 18 18 19 19 20 21 22 23 23 22 21 20 21 20 19 20 20 18 17 16 16 16 15 14 13 11 10 9 7 6 4 3 3 3 3 4 4 4 4 4 3 2 1 1 1 1 2 3 4 6 8 9 11 13 14 14 12 11 11 11 11 10 8 6 5 4 4 3 3 3 3 2 3 4
14 13 13 14 15 15 15 15 15 16 17 17 17 18 19 20 21 21 22 22 21 20 20 20 20 21 22 21 20 19 19 18 17 16 15 13 11 9 8 6 5 3 2 2 2 3 3 3 3 3 3 2 2 1 0 0 1 1 3 6 7 9 11 13 14 14 13 11 11 11 11 11 11 9 7 5 3 2 2 2 2 2 3 3 4
13 13 13 13 12 12 12 12 12 13 14 15 16 18 19 20 21 22 21 20 20 19 19 19 20 21 22 22 21 21 21 20 18 16 14 12 10 8 7 5 4 3 1 1 1 1 2 2 2 2 2 2 1 1 1 1 1 1 3 5 7 9 11 12 13 13 12 10 10 11 11 11 9 8 6 4 3 2 2 2 2 3 3 4 4
12 12 12 11 10 10 11 12 13 14 15 16 17 18 18 19 20 20 20 20 19 19 20 20 21 23 24 24 23 22 21 19 17 15 13 11 10 9 8 6 5 3 2 1 1 1 1 1 1 1 1 1 1 2 3 2 1 1 4 7 9 10 11 11 12 12 11 10 10 11 10 9 8 7 6 4 2 2 2 2 3 3 4 4 4
12 12 12 11 11 12 13 13 14 14 15 16 16 17 17 17 17 17 17 16 15 16 16 16 18 20 23 24 24 23 20 18 16 15 14 13 11 10 8 7 5 4 3 2 2 1 1 1 1 1 1 1 1 3 4 3 1 2 6 10 10 10 10 11 12 12 10 9 9 10 9 8 7 7 6 4 2 2 2 3 3 4 4 4 5
12 12 12 12 12 12 12 11 12 12 13 13 13 14 13 13 12 12 11 10 10 10 10 11 13 14 14 17 19 20 18 17 16 15 14 12 10 9 8 7 6 5 4 3 2 2 2 2 2 1 1 2 3 4 4 3 1 5 9 11 10 9 10 12 13 12 10 10 10 10 9 8 8 8 6 4 3 2 2 3 4 4 5 5 5
Wind_Direction
215 217 219 220 223 226 228 230 231 232 234 237 241 244 247 248 248 248 250 250 251 252 252 252 253 253 253 254 257 255 253 255 253 253 259 263 261 259 259 259 263 269 271 268 271 280 286 286 277 270 270 270 270 273 279 288 289 285 283 284 281 275 265 250 243 272 299 314 325 335 343 346 352 357 357 357 357 358 0 2 5 5 359 357 4
216 218 219 220 222 226 228 230 231 231 233 235 237 239 242 244 246 248 249 248 249 252 252 253 254 254 255 256 256 255 253 254 252 251 257 261 260 260 261 262 266 270 269 265 266 274 283 285 275 265 267 271 275 279 282 286 288 287 283 280 281 280 274 265 254 262 290 308 320 330 338 342 349 354 353 353 352 352 357 3 9 10 7 9 21
217 218 218 220 222 225 227 229 230 231 233 235 235 236 237 240 243 246 246 245 249 254 255 256 257 258 261 260 257 256 255 256 255 254 257 260 261 262 262 264 267 269 269 268 268 272 279 284 283 275 274 278 281 283 285 287 288 287 287 283 278 279 282 276 263 260 279 298 310 323 333 339 345 350 351 349 349 352 359 6 11 15 19 22 30
215 216 217 220 222 223 225 226 227 229 232 235 236 238 238 240 242 242 242 245 250 255 257 258 260 261 264 264 261 259 259 259 259 258 257 258 260 262 262 264 266 269 271 271 271 273 278 284 286 283 281 283 284 285 285 288 288 283 282 280 273 273 282 284 275 269 272 282 296 314 327 335 341 347 348 347 350 358 4 8 12 18 27 29 28
213 214 215 217 219 221 224 225 226 227 230 235 240 242 242 242 243 241 241 245 251 255 257 259 260 261 263 265 264 264 263 263 263 260 258 258 261 264 266 266 266 267 269 271 274 277 280 283 284 284 285 285 284 285 285 285 284 280 278 278 274 271 275 283 286 281 274 275 286 305 321 329 337 347 350 350 355 1 3 7 14 20 26 30 27
211 212 213 213 215 219 223 225 227 228 230 234 240 245 245 245 244 242 241 245 249 251 255 258 260 262 264 267 268 269 268 266 264 262 261 263 265 268 269 268 268 267 267 270 274 278 281 283 284 284 283 284 283 282 282 283 281 278 277 278 277 272 272 279 285 285 282 279 283 298 315 324 333 345 355 359 2 3 359 2 13 23 27 29 27
212 211 211 212 215 218 222 225 229 230 232 235 240 246 248 247 246 244 244 247 249 252 257 260 263 265 267 269 272 274 272 268 265 263 263 264 267 270 271 269 267 266 267 269 274 278 282 284 284 284 282 282 283 280 279 281 280 275 273 275 274 271 274 280 280 279 277 274 276 292 309 321 332 342 353 3 4 5 3 360 5 18 27 32 27
210 211 211 212 215 220 222 226 229 232 234 237 241 246 247 247 247 247 248 249 252 257 262 265 267 269 270 272 274 275 274 270 267 266 266 267 268 269 269 267 265 264 266 269 274 279 282 283 284 284 282 280 279 277 276 277 276 273 271 270 268 268 275 279 275 267 261 261 273 289 302 314 329 339 349 0 0 1 2 357 355 5 19 34 34
205 209 210 211 216 220 223 226 229 232 234 236 239 243 245 246 247 249 249 251 257 265 268 269 270 271 272 272 273 272 273 272 272 272 271 271 271 271 269 265 262 262 264 267 270 274 277 281 282 283 282 279 275 272 271 268 266 267 270 268 264 264 270 272 263 249 245 254 269 282 292 307 328 341 350 1 358 351 351 351 351 358 7 30 46
201 205 209 213 217 220 221 225 229 231 233 235 236 238 240 243 246 248 250 255 263 268 270 269 271 273 273 272 272 270 271 273 276 277 275 273 272 272 270 266 261 261 264 266 269 271 273 275 277 278 279 276 270 265 263 263 264 269 274 272 268 265 265 263 252 243 243 250 260 270 282 301 321 337 344 345 340 339 344 346 346 351 358 16 42
200 203 207 210 214 216 219 222 227 230 234 237 238 239 242 245 246 247 250 256 263 264 264 265 266 269 272 272 273 274 274 275 275 275 275 274 271 269 268 265 261 262 265 267 270 273 273 273 272 273 272 269 264 257 255 260 264 270 275 276 276 272 266 262 255 247 244 243 249 256 265 286 303 313 318 320 324 332 339 339 336 341 352 2 15
196 198 205 211 211 211 215 219 224 230 233 237 242 245 247 247 246 247 250 253 254 249 247 252 255 260 265 268 272 277 280 281 281 279 279 277 272 267 264 262 261 263 265 268 271 273 273 272 271 270 268 264 258 253 252 257 264 269 273 274 275 270 263 259 255 248 243 240 243 247 251 270 285 287 295 307 314 323 330 329 325 327 337 345 6
188 190 205 220 214 208 211 216 221 226 230 234 240 244 246 246 244 244 245 246 245 241 241 247 252 255 260 266 272 276 281 284 286 287 284 279 272 266 262 260 262 264 267 269 271 273 275 274 270 267 264 258 253 251 251 257 265 272 275 275 274 268 259 253 248 244 242 241 244 247 248 261 274 277 283 295 307 316 321 320 316 315 320 334 49
185 188 203 218 214 205 206 210 213 219 221 223 228 233 236 236 229 219 217 221 226 233 239 242 246 253 260 269 276 278 279 279 278 278 277 273 268 263 261 262 264 267 270 272 273 274 275 275 272 266 259 252 249 248 249 255 262 268 274 276 274 267 257 249 244 241 241 243 247 251 252 260 273 278 279 287 301 310 311 308 305 301 289 129 112
178 182 189 200 205 200 201 208 212 215 215 213 218 222 218 200 138 152 201 231 236 237 240 240 242 257 271 284 296 295 290 284 280 277 273 269 265 261 261 263 265 269 271 272 275 277 277 279 277 269 259 250 246 245 247 253 259 263 268 270 267 261 253 245 241 239 240 243 246 250 253 261 269 272 277 288 300 305 300 293 287 240 146 134 132
169 177 176 178 186 188 192 205 210 211 216 215 212 198 169 121 87 136 210 235 265 265 259 252 246 250 252 256 274 288 290 284 279 277 275 273 270 267 265 266 268 271 273 274 280 285 285 285 281 269 258 253 250 248 250 255 258 259 259 257 253 249 244 239 237 236 237 241 243 246 251 258 264 270 279 287 293 294 281 246 171 149 138 129 130
166 176 177 171 167 169 180 186 176 187 235 231 219 206 186 186 219 234 228 236 264 277 278 275 268 265 263 261 262 269 276 275 272 272 273 274 276 276 275 275 274 275 276 278 282 286 286 283 275 264 257 253 249 250 255 258 257 254 247 240 237 238 239 239 239 237 236 238 241 244 248 252 261 270 272 263 259 252 209 164 146 145 140 125 123
162 163 159 150 136 129 140 154 168 212 258 266 247 28 1 278 284 310 275 259 265 270 276 283 283 270 259 256 257 259 265 270 272 275 276 280 285 288 289 288 286 283 281 281 282 284 283 279 271 262 256 248 241 245 251 253 251 248 240 229 226 232 239 242 239 236 236 237 239 244 248 253 261 263 250 231 219 207 188 170 156 150 134 114 126
141 136 127 121 117 108 102 104 117 141 163 59 65 71 64 46 43 51 51 274 254 258 265 266 249 229 229 241 254 263 270 277 282 285 286 287 290 291 291 290 288 285 284 285 285 284 280 275 267 260 252 243 237 242 244 242 241 239 233 226 224 230 239 240 235 232 234 236 240 246 249 255 257 245 228 217 204 185 170 160 155 144 117 108 124
111 110 107 104 103 99 97 104 112 117 114 94 76 75 72 65 68 77 94 177 211 219 227 222 198 181 240 270 271 279 289 299 305 308 308 306 305 305 303 296 291 289 289 288 286 286 284 277 268 260 253 244 237 238 236 231 227 223 221 225 228 231 237 240 238 239 241 241 244 248 249 250 238 218 206 198 179 162 148 133 115 90 95 113 118
98 100 100 98 97 96 98 104 108 102 95 89 83 80 74 70 75 84 91 106 135 135 119 114 107 98 92 86 56 37 20 10 6 5 2 356 352 347 339 327 317 310 305 296 288 287 291 284 266 252 244 234 227 226 222 216 211 210 220 234 239 238 238 238 243 250 253 251 250 249 244 229 208 193 187 178 160 150 138 119 101 84 87 109 117
93 95 95 95 94 95 95 95 91 85 81 79 80 81 77 72 69 63 74 91 100 101 107 113 114 114 113 100 81 71 64 57 51 48 42 35 30 23 14 5 355 347 340 330 315 304 300 296 273 250 240 234 225 217 212 209 207 209 224 236 237 238 239 244 259 270 273 277 280 267 229 199 180 169 165 163 155 146 134 122 117 108 99 101 112
87 87 88 88 87 87 87 84 79 76 75 75 78 80 80 78 72 59 62 84 102 109 116 122 122 121 115 101 91 86 79 69 58 51 45 39 35 31 25 19 10 3 359 356 352 339 322 313 299 271 258 259 248 222 213 216 216 217 226 230 232 243 252 264 293 311 313 311 305 278 204 173 155 143 144 150 151 146 138 133 131 127 120 114 116
84 82 82 82 83 83 82 79 74 70 70 69 72 75 76 74 75 71 69 83 102 113 120 127 127 121 113 105 102 100 87 62 43 34 29 25 19 14 12 7 360 357 358 357 356 352 343 337 328 303 272 263 257 240 229 230 229 231 240 250 256 255 251 253 295 358 0 339 306 221 171 158 144 131 131 144 154 152 144 140 137 136 134 129 124
89 87 83 80 80 79 76 73 68 66 66 65 65 66 66 66 72 77 73 70 82 102 119 130 129 119 113 110 106 100 76 40 25 17 11 6 3 0 358 353 346 340 339 343 348 350 349 350 348 343 338 326 311 300 293 293 293 286 291 299 287 265 249 248 254 45 42 15 193 149 142 147 144 136 136 150 161 160 150 145 142 140 141 136 124
90 86 81 77 74 69 67 66 65 65 65 62 61 61 59 59 65 73 72 63 62 75 97 122 129 120 110 102 88 70 33 8 359 355 352 350 348 348 347 346 343 337 329 328 332 336 343 354 0 1 6 8 0 344 327 328 332 312 298 296 274 234 180 156 153 131 127 156 160 131 126 141 152 162 167 164 167 164 158 157 153 146 149 148 130
83 78 74 71 66 62 63 64 63 63 62 58 58 60 57 53 55 60 69 82 105 59 29 28 158 156 81 52 35 14 351 340 337 337 337 336 336 337 338 338 338 337 331 325 328 338 349 5 24 37 44 43 41 50 64 76 86 120 164 141 137 140 136 141 155 159 165 175 165 147 150 154 153 159 164 161 162 161 161 169 168 157 159 163 136
72 69 65 64 62 60 62 60 56 55 56 54 55 55 50 45 43 44 45 43 37 294 313 316 291 288 319 349 350 340 331 328 329 329 328 329 331 330 330 333 335 339 338 333 340 5 33 71 96 101 100 93 87 87 93 100 105 108 113 116 116 120 132 144 150 151 153 155 150 147 151 144 133 133 137 138 139 140 150 169 171 162 167 170 133
60 56 53 55 56 54 53 52 48 46 46 44 40 37 35 33 31 29 26 26 28 12 320 303 295 297 308 321 325 326 324 322 324 325 325 329 332 329 329 333 337 341 344 342 353 43 100 120 120 113 106 100 97 96 96 98 100 101 104 108 109 112 118 122 120 120 125 129 125 123 125 122 115 114 116 113 109 110 123 137 137 137 150 143 107
55 56 55 55 54 50 47 45 41 35 32 29 29 32 32 30 28 25 14 1 6 11 4 356 339 322 320 320 321 324 325 324 326 327 328 332 334 332 333 335 336 341 347 351 16 93 118 117 108 104 102 100 99 100 101 101 100 98 99 100 100 101 103 104 106 109 113 116 114 112 112 109 105 102 102 99 96 95 99 106 107 104 104 97 84
58 60 58 55 52 47 41 36 28 21 17 20 27 31 27 18 18 25 23 12 1 358 354 344 336 332 329 331 337 342 344 344 341 338 339 341 340 338 342 345 344 351 0 20 75 104 113 108 99 97 99 97 96 99 103 103 100 97 96 94 92 91 91 92 96 100 103 104 104 103 102 102 100 99 97 96 94 92 90 92 92 88 86 84 75
57 60 56 52 49 40 31 24 17 11 7 8 8 5 359 352 351 4 17 20 20 18 10 358 352 353 358 8 18 22 17 12 6 356 352 352 351 354 10 28 26 17 25 80 95 98 102 101 95 94 97 96 94 97 101 102 100 98 96 91 86 84 84 85 86 90 91 92 93 93 93 94 94 94 92 89 86 82 79 74 72 71 69 66 60
44 46 42 40 37 27 15 10 7 3 0 357 352 346 342 337 331 335 351 2 11 20 23 18 13 16 25 35 41 43 39 31 24 18 12 11 15 27 49 58 53 53 88 111 103 97 96 94 92 92 94 94 94 96 98 97 97 96 94 91 88 85 85 85 84 84 84 85 86 87 87 87 87 87 84 79 74 69 63 55 50 46 42 37 34
33 33 26 19 13 5 359 354 347 338 333 329 326 326 326 325 321 314 312 318 318 311 329 0 13 29 47 56 58 56 50 41 35 32 30 33 40 50 65 78 82 90 103 107 103 99 96 94 92 92 93 93 93 94 94 93 92 90 89 88 88 86 84 82 79 78 79 79 78 79 78 76 75 72 67 63 57 50 46 41 34 28 24 20 12
19 18 13 6 360 353 347 342 335 328 324 321 319 318 316 313 312 308 301 300 294 278 269 283 337 32 76 85 74 63 54 44 40 39 39 41 46 56 77 91 93 94 96 98 98 96 95 93 92 92 91 91 90 90 90 89 88 87 86 86 85 82 79 75 72 72 73 71 71 70 66 63 60 55 49 43 37 32 28 23 19 15 9 1 343
0 360 359 357 354 350 342 333 327 321 317 313 311 309 305 300 297 297 295 293 291 280 260 248 257 249 135 128 91 65 52 41 38 39 41 42 44 57 92 99 98 95 93 93 93 93 92 91 90 90 89 89 88 87 86 86 86 86 86 86 83 80 76 75 74 72 70 68 67 62 55 50 46 40 34 28 22 18 12 3 360 355 347 338 325
336 335 339 341 343 344 340 334 328 320 312 307 304 303 300 294 287 285 283 282 283 281 261 241 234 227 199 184 168 67 35 27 26 29 35 40 41 71 100 104 103 99 96 94 94 93 92 90 90 89 87 86 85 84 85 85 85 85 84 82 80 79 78 76 73 70 67 66 64 57 48 41 33 25 19 10 2 359 354 345 339 332 323 320 316
339 333 330 327 327 329 329 327 325 318 311 308 309 309 309 303 291 281 276 274 274 277 268 246 234 231 224 212 207 221 355 13 14 16 24 35 56 95 108 109 107 104 102 100 98 96 94 92 89 86 84 82 81 80 80 80 80 80 78 77 76 76 74 71 66 62 60 57 54 46 36 27 18 10 4 355 343 339 336 329 324 323 320 322 328
352 345 339 332 327 325 323 320 318 312 306 303 304 306 310 310 301 288 281 280 277 276 273 257 241 235 231 222 217 221 237 332 12 20 30 57 95 112 116 114 111 108 107 104 100 98 96 92 88 83 79 76 72 69 69 68 69 71 71 73 76 76 73 68 62 58 54 46 38 27 16 8 1 355 352 346 331 322 323 322 322 325 326 327 334
350 347 343 338 334 329 325 321 317 312 306 302 300 300 300 300 297 288 284 285 284 280 278 270 257 245 234 225 221 222 223 221 77 54 83 120 128 126 122 117 113 111 108 104 100 97 94 91 87 81 76 72 67 64 61 58 61 66 68 70 75 74 71 67 59 52 44 32 21 11 3 357 351 348 347 342 325 314 317 319 319 322 325 328 333
334 334 333 333 332 328 325 322 319 316 312 304 298 296 295 295 295 292 288 287 287 283 277 272 266 255 240 228 224 225 226 225 210 172 159 150 141 134 127 122 118 115 111 106 101 95 90 86 80 72 67 64 58 53 50 49 56 71 76 76 76 74 68 59 47 36 25 14 5 359 354 350 347 345 342 337 320 313 321 329 330 332 337 342 344
324 325 326 328 328 326 326 325 323 321 316 307 299 293 289 288 290 293 294 293 293 287 276 267 263 254 238 226 223 224 225 221 206 185 170 159 152 145 137 130 125 121 115 109 102 94 85 76 68 58 52 50 45 39 35 39 52 76 86 84 82 76 63 47 31 18 7 0 355 350 346 344 344 342 338 332 322 322 331 339 339 338 340 346 352
326 321 319 320 321 321 322 321 320 318 314 310 304 296 289 284 282 282 285 289 292 288 275 264 258 247 229 220 220 222 220 211 196 184 174 166 159 154 147 141 137 130 122 115 104 89 67 52 48 44 38 39 40 31 24 40 72 88 92 88 78 66 48 32 19 8 359 354 349 344 341 341 342 339 335 330 324 328 332 332 332 332 332 335 348
328 321 316 312 310 310 310 310 310 310 310 309 306 300 293 286 280 277 278 282 287 285 273 261 253 240 223 216 216 216 210 198 187 181 176 170 165 159 153 149 144 137 130 118 99 73 49 37 37 38 40 49 53 41 44 103 109 92 82 74 61 47 35 23 12 4 357 351 344 339 338 339 339 336 331 325 322 324 324 321 321 324 323 326 344
320 319 316 312 310 308 307 307 307 306 306 306 303 298 292 286 282 281 280 278 279 277 268 256 248 235 221 215 211 205 197 189 183 180 177 172 167 163 158 155 150 145 137 120 93 65 47 42 44 48 56 64 66 63 91 120 111 83 67 58 45 33 23 13 4 357 352 347 341 338 336 335 335 333 326 316 312 309 306 305 308 311 317 328 338
318 316 315 314 313 312 310 309 309 307 305 304 300 297 293 289 286 286 282 277 274 272 263 251 239 227 217 211 206 198 191 188 185 182 178 175 172 168 165 161 158 153 138 109 80 58 49 49 53 57 63 67 73 91 128 129 100 76 49 32 21 11 3 356 350 346 344 341 339 338 335 332 332 328 317 306 301 298 299 304 306 306 309 318 323
322 321 320 319 319 317 314 311 309 308 308 306 301 298 297 295 292 291 286 278 273 269 259 244 230 220 214 211 206 199 193 190 186 181 177 175 175 173 171 170 167 160 140 96 70 53 50 54 55 56 62 67 69 80 114 117 58 26 5 358 353 349 346 344 340 338 338 338 337 338 335 332 330 326 318 309 302 300 305 313 315 316 317 317 320
334 334 333 330 327 324 321 318 315 313 313 311 305 302 301 299 297 296 292 283 272 262 251 239 226 216 211 207 202 196 190 185 180 175 174 177 180 179 178 176 173 170 163 113 91 75 64 66 66 63 65 71 61 33 344 296 306 348 357 355 351 348 346 344 339 337 338 338 338 338 336 335 334 331 325 316 308 310 320 326 326 324 321 318 319
350 349 347 344 342 339 334 329 325 321 319 317 312 308 306 302 299 297 294 287 274 259 249 240 228 217 209 204 197 189 184 181 180 179 180 185 186 183 181 181 181 185 193 188 162 147 113 99 115 106 88 84 49 353 325 296 266 13 11 6 1 354 350 345 341 339 339 339 339 340 340 340 343 341 336 329 323 319 324 327 323 321 321 318 318
357 357 356 354 352 350 346 339 333 329 326 321 316 312 309 305 300 297 294 286 272 255 243 234 222 213 206 199 190 184 182 184 185 183 181 180 180 178 180 184 187 191 196 195 188 188 210 212 182 144 108 97 18 332 313 285 247 3 359 356 354 349 345 344 343 343 341 339 338 341 343 344 344 342 338 335 336 334 328 324 321 318 315 313 314
5 4 4 3 1 359 355 351 347 342 338 333 327 322 316 309 302 296 290 279 264 248 232 217 205 197 189 183 179 177 178 180 180 177 173 173 174 178 184 190 193 193 193 194 209 244 259 252 235 194 119 66 359 324 290 254 292 347 344 342 341 338 338 340 342 343 343 339 338 340 343 342 341 339 334 328 326 319 310 309 312 310 305 304 304